This demonstration page uses our WeatherBlox Daily Observations layout. Learn more.

Left ArrowRight Arrow

34.02893, -84.19858

Hourly Observations for July 16, 2021

Temp ( °F °C ) Dew Point ( °F °C ) Humidity (%) Winds ( mph kmh ) Pressure ( in mb ) Visibility ( mi km ) Precip ( " mm )
12:53 am 00:53 Mostly Clear 76 24.4 70 21.1 82 82 Calm 30.09 1019 10 16 0.00 0.00
1:53 am 01:53 Clear 74 23.3 70 21.1 88 88 Calm 30.09 1019 10 16 0.00 0.00
2:53 am 02:53 Clear 74 23.3 71 21.7 91 91 SSE 3 6 30.08 1019 10 16 0.00 0.00
3:53 am 03:53 Clear 73 22.8 71 21.7 94 94 Calm 30.07 1018 10 16 0.00 0.00
4:53 am 04:53 Clear 73 22.8 71 21.7 94 94 SW 5 7 30.07 1018 10 16 0.00 0.00
5:53 am 05:53 Clear 73 22.8 72 22.2 96 96 WSW 6 9 30.09 1019 10 16 0.00 0.00
6:53 am 06:53 Sunny 73 22.8 71 21.7 94 94 WSW 3 6 30.10 1019 9 14 0.00 0.00
7:53 am 07:53 Sunny 75 23.9 72 22.2 90 90 Calm 30.11 1020 10 16 0.00 0.00
8:53 am 08:53 Sunny 78 25.6 72 22.2 82 82 W 5 7 30.12 1020 10 16 0.00 0.00
9:53 am 09:53 Sunny 80 26.7 72 22.2 76 76 NW 7 11 30.13 1020 10 16 0.00 0.00
10:53 am 10:53 Sunny 81 27.2 72 22.2 74 74 Calm 30.13 1020 10 16 0.00 0.00
11:53 am 11:53 Sunny 83 28.3 72 22.2 70 70 Calm 30.13 1020 10 16 0.00 0.00
12:53 pm 12:53 Sunny 84 28.9 72 22.2 67 67 Calm 30.12 1020 10 16 0.00 0.00
1:53 pm 13:53 Mostly Cloudy 85 29.4 72 22.2 65 65 VRB 3 6 30.10 1019 10 16 0.00 0.00
2:53 pm 14:53 Mostly Cloudy 86 30 71 21.7 61 61 S 5 7 30.08 1019 10 16 0.00 0.00
3:53 pm 15:53 Mostly Sunny 89 31.7 71 21.7 55 55 SSW 7 11 30.06 1018 10 16 0.00 0.00
4:53 pm 16:53 Mostly Sunny 88 31.1 69 20.6 54 54 S 5 7 30.04 1017 10 16 0.00 0.00
5:53 pm 17:53 Sunny 84 28.9 69 20.6 61 61 S 6 9 30.03 1017 10 16 0.00 0.00
6:22 pm 18:22 Partly Cloudy with Thunderstorms 84 28.9 70 21.1 63 63 S 7 11 30.03 1017 10 16 0.00 0.00
6:43 pm 18:43 Partly Cloudy with Nearby Thunderstorms 87 30.6 70 21.1 57 57 WSW 3 6 30.02 1017 10 16 0.00 0.00
6:53 pm 18:53 Partly Cloudy with Nearby Thunderstorms 86 30 71 21.7 61 61 SW 14 22 30.03 1017 10 16 0.00 0.00
7:10 pm 19:10 Mostly Cloudy with Light Rain 83 28.3 71 21.7 67 67 SW 6 9 30.04 1017 10 16 0.00 0.00
7:36 pm 19:36 Mostly Cloudy with Thunderstorms 82 27.8 73 22.8 74 74 Calm 30.05 1017 10 16 0.00 0.00
7:53 pm 19:53 Mostly Cloudy with Thunderstorms 81 27.2 72 22.2 74 74 VRB 5 7 30.05 1018 10 16 0.00 0.00
8:06 pm 20:06 Mostly Cloudy with Nearby Thunderstorms 81 27.2 69 20.6 67 67 SSE 5 7 30.06 1018 10 16 0.00 0.00
8:13 pm 20:13 Mostly Cloudy with Thunderstorms 80 26.7 70 21.1 71 71 S 13 20 30.07 1018 10 16 0.00 0.00
8:53 pm 20:53 Clear with Thunderstorms 74 23.3 67 19.4 79 79 Calm 30.06 1018 10 16 0.00 0.00
8:59 pm 20:59 Clear 74 23.3 67 19.4 79 79 SSW 3 6 30.07 1018 10 16 0.00 0.00
9:53 pm 21:53 Mostly Clear 74 23.3 70 21.1 88 88 Calm 30.09 1019 10 16 0.00 0.00
10:53 pm 22:53 Partly Cloudy 76 24.4 70 21.1 82 82 W 6 9 30.11 1020 10 16 0.00 0.00
11:53 pm 23:53 Clear 74 23.3 70 21.1 88 88 Calm 30.09 1019 10 16 0.00 0.00

Powered by AerisWeather